When you browse on this site, cookies collect data to enhance your experience and personalize the content and advertising you see.
Visit our Privacy Policy to learn more. By continuing to use the site, you agree to this use of cookies and data.
  • In Hungary
  • List of Countries
  • For 7 days
  • Water Temperature
  • Satellite Maps
  • Weather Map
  • News
  • Weather Widgets
  • user-avatar
    Login

    Hourly Weather Osola

    Today, 20 May, Monday

    Time Temperature Precipitation Wind Pressure Humidity
    00:00 +15°C° 0 mm 2 mps 739 mmHg 90%
    01:00 +14°C° 0 mm 2 mps 739 mmHg 91%
    02:00 +14°C° 0 mm 1 mps 739 mmHg 91%
    03:00 +14°C° 0 mm 1 mps 739 mmHg 91%
    04:00 +13°C° 0 mm 1 mps 738 mmHg 91%
    05:00 +14°C° 0.2 mm 1 mps 738 mmHg 91%
    06:00 +15°C° 0.2 mm 1 mps 738 mmHg 90%
    07:00 +16°C° 0.2 mm 1 mps 738 mmHg 90%
    08:00 +16°C° 0.1 mm 1 mps 738 mmHg 87%
    09:00 +18°C° 0.1 mm 1 mps 738 mmHg 84%
    10:00 +19°C° 0.1 mm 1 mps 738 mmHg 81%
    11:00 +20°C° 0 mm 1 mps 738 mmHg 76%
    12:00 +21°C° 0 mm 2 mps 738 mmHg 71%
    13:00 +22°C° 0 mm 3 mps 738 mmHg 66%
    14:00 +22°C° 0.1 mm 3 mps 738 mmHg 66%
    15:00 +24°C° 0.1 mm 3 mps 737 mmHg 66%
    16:00 +24°C° 0.1 mm 3 mps 737 mmHg 65%
    17:00 +21°C° 0.2 mm 3 mps 737 mmHg 71%
    18:00 +20°C° 0.2 mm 2 mps 737 mmHg 76%
    19:00 +19°C° 0.2 mm 2 mps 737 mmHg 82%
    20:00 +18°C° 0 mm 2 mps 737 mmHg 84%
    21:00 +18°C° 0 mm 1 mps 738 mmHg 86%
    22:00 +16°C° 0 mm 1 mps 738 mmHg 88%
    23:00 +15°C° 0 mm 1 mps 738 mmHg 89%

    Tomorrow, 21 May, Tuesday

    Time Temperature Precipitation Wind Pressure Humidity
    00:00 +14°C° 0 mm 1 mps 738 mmHg 90%
    01:00 +14°C° 0 mm 1 mps 738 mmHg 91%
    02:00 +13°C° 0 mm 1 mps 738 mmHg 91%
    03:00 +13°C° 0 mm 1 mps 738 mmHg 91%
    04:00 +13°C° 0 mm 2 mps 738 mmHg 92%
    05:00 +14°C° 0 mm 2 mps 738 mmHg 88%
    06:00 +15°C° 0 mm 2 mps 739 mmHg 84%
    07:00 +17°C° 0 mm 2 mps 739 mmHg 80%
    08:00 +19°C° 0 mm 1 mps 739 mmHg 75%
    09:00 +20°C° 0 mm 1 mps 739 mmHg 70%
    10:00 +22°C° 0 mm 1 mps 739 mmHg 65%
    11:00 +21°C° 0.1 mm 1 mps 739 mmHg 67%
    12:00 +21°C° 0.1 mm 1 mps 739 mmHg 69%
    13:00 +21°C° 0.1 mm 1 mps 739 mmHg 71%
    14:00 +21°C° 0.1 mm 1 mps 738 mmHg 74%
    15:00 +20°C° 0.1 mm 1 mps 738 mmHg 77%
    16:00 +19°C° 0.1 mm 2 mps 738 mmHg 80%
    17:00 +19°C° 0.6 mm 2 mps 738 mmHg 82%
    18:00 +18°C° 0.6 mm 3 mps 738 mmHg 84%
    19:00 +17°C° 0.6 mm 4 mps 738 mmHg 87%
    20:00 +17°C° 1.3 mm 4 mps 738 mmHg 89%
    21:00 +15°C° 1.3 mm 4 mps 738 mmHg 91%
    22:00 +15°C° 1.3 mm 4 mps 738 mmHg 93%
    23:00 +15°C° 0.8 mm 5 mps 738 mmHg 93%

    Day after tomorrow, 22 May, Wednesday

    Time Temperature Precipitation Wind Pressure Humidity
    00:00 +15°C° 0.8 mm 5 mps 738 mmHg 94%
    01:00 +15°C° 0.8 mm 5 mps 738 mmHg 94%
    02:00 +15°C° 0.7 mm 5 mps 737 mmHg 95%
    03:00 +15°C° 0.7 mm 5 mps 737 mmHg 96%
    04:00 +15°C° 0.7 mm 5 mps 737 mmHg 96%
    05:00 +15°C° 0.2 mm 5 mps 737 mmHg 96%
    06:00 +15°C° 0.2 mm 5 mps 737 mmHg 95%
    07:00 +15°C° 0.2 mm 5 mps 737 mmHg 94%
    08:00 +15°C° 0.4 mm 5 mps 738 mmHg 93%
    09:00 +16°C° 0.4 mm 5 mps 738 mmHg 92%
    10:00 +16°C° 0.4 mm 5 mps 738 mmHg 91%
    11:00 +16°C° 1.2 mm 5 mps 738 mmHg 90%
    12:00 +16°C° 1.2 mm 6 mps 738 mmHg 90%
    13:00 +16°C° 1.2 mm 7 mps 739 mmHg 89%
    14:00 +16°C° 2.9 mm 7 mps 739 mmHg 91%
    15:00 +15°C° 2.9 mm 7 mps 739 mmHg 92%
    16:00 +15°C° 2.9 mm 7 mps 739 mmHg 93%
    17:00 +13°C° 1.3 mm 8 mps 740 mmHg 93%
    18:00 +13°C° 1.3 mm 8 mps 740 mmHg 94%
    19:00 +13°C° 1.3 mm 8 mps 741 mmHg 94%
    20:00 +13°C° 1.6 mm 8 mps 741 mmHg 94%
    21:00 +13°C° 1.6 mm 9 mps 741 mmHg 94%
    22:00 +12°C° 1.6 mm 9 mps 742 mmHg 93%
    23:00 +12°C° 1 mm 9 mps 742 mmHg 93%

    23 May, Thursday

    Time Temperature Precipitation Wind Pressure Humidity
    00:00 +12°C° 1 mm 9 mps 742 mmHg 93%
    01:00 +11°C° 1 mm 9 mps 743 mmHg 93%
    02:00 +11°C° 0.6 mm 9 mps 743 mmHg 93%
    03:00 +11°C° 0.6 mm 9 mps 744 mmHg 93%
    04:00 +10°C° 0.6 mm 9 mps 744 mmHg 92%
    05:00 +10°C° 0.2 mm 9 mps 745 mmHg 92%
    06:00 +10°C° 0.2 mm 9 mps 745 mmHg 91%
    07:00 +9°C° 0.2 mm 8 mps 746 mmHg 91%
    08:00 +9°C° 0.1 mm 8 mps 747 mmHg 89%
    09:00 +9°C° 0.1 mm 8 mps 747 mmHg 87%
    10:00 +9°C° 0.1 mm 7 mps 748 mmHg 85%
    11:00 +10°C° 0 mm 7 mps 748 mmHg 80%
    12:00 +11°C° 0 mm 7 mps 748 mmHg 74%
    13:00 +14°C° 0 mm 7 mps 748 mmHg 69%
    14:00 +15°C° 0 mm 6 mps 748 mmHg 66%
    15:00 +15°C° 0 mm 6 mps 748 mmHg 64%
    16:00 +16°C° 0 mm 5 mps 748 mmHg 61%
    17:00 +15°C° 0 mm 4 mps 748 mmHg 66%
    18:00 +14°C° 0 mm 3 mps 748 mmHg 70%
    19:00 +14°C° 0 mm 2 mps 748 mmHg 75%
    20:00 +13°C° 0 mm 2 mps 748 mmHg 78%
    21:00 +10°C° 0 mm 2 mps 749 mmHg 81%
    22:00 +10°C° 0 mm 1 mps 749 mmHg 85%
    23:00 +10°C° 0 mm 1 mps 749 mmHg 86%

    24 May, Friday

    Time Temperature Precipitation Wind Pressure Humidity
    00:00 +9°C° 0 mm 1 mps 748 mmHg 88%
    01:00 +8°C° 0 mm 1 mps 748 mmHg 90%
    02:00 +8°C° 0 mm 1 mps 748 mmHg 90%
    03:00 +7°C° 0 mm 0 mps 748 mmHg 91%
    04:00 +6°C° 0 mm 0 mps 747 mmHg 91%
    05:00 +8°C° 0 mm 0 mps 747 mmHg 86%
    06:00 +10°C° 0 mm 0 mps 747 mmHg 81%
    07:00 +12°C° 0 mm 0 mps 747 mmHg 76%
    08:00 +13°C° 0 mm 0 mps 747 mmHg 70%
    09:00 +15°C° 0 mm 0 mps 746 mmHg 65%
    10:00 +16°C° 0 mm 0 mps 746 mmHg 60%
    11:00 +19°C° 0 mm 1 mps 746 mmHg 57%
    12:00 +20°C° 0 mm 1 mps 745 mmHg 54%
    13:00 +20°C° 0 mm 1 mps 745 mmHg 51%
    14:00 +20°C° 0 mm 1 mps 744 mmHg 52%
    15:00 +20°C° 0 mm 1 mps 744 mmHg 52%
    16:00 +19°C° 0 mm 2 mps 743 mmHg 53%
    17:00 +18°C° 0 mm 2 mps 743 mmHg 59%
    18:00 +17°C° 0 mm 2 mps 742 mmHg 64%
    19:00 +16°C° 0 mm 2 mps 742 mmHg 70%
    20:00 +15°C° 0 mm 2 mps 742 mmHg 71%
    21:00 +13°C° 0 mm 2 mps 742 mmHg 72%
    22:00 +12°C° 0 mm 2 mps 742 mmHg 73%
    23:00 +12°C° 0 mm 2 mps 742 mmHg 74%

    25 May, Saturday

    Time Temperature Precipitation Wind Pressure Humidity
    00:00 +10°C° 0 mm 2 mps 742 mmHg 76%
    01:00 +10°C° 0 mm 2 mps 742 mmHg 77%
    02:00 +9°C° 0 mm 2 mps 742 mmHg 80%
    03:00 +9°C° 0 mm 2 mps 742 mmHg 82%
    04:00 +9°C° 0 mm 2 mps 742 mmHg 85%
    05:00 +10°C° 0 mm 2 mps 742 mmHg 82%
    06:00 +13°C° 0 mm 2 mps 742 mmHg 78%
    07:00 +15°C° 0 mm 2 mps 743 mmHg 75%
    08:00 +16°C° 0 mm 2 mps 743 mmHg 70%
    09:00 +18°C° 0 mm 2 mps 743 mmHg 64%
    10:00 +19°C° 0 mm 2 mps 743 mmHg 59%
    11:00 +20°C° 0 mm 2 mps 743 mmHg 56%
    12:00 +22°C° 0 mm 1 mps 743 mmHg 53%
    13:00 +23°C° 0 mm 1 mps 742 mmHg 50%
    14:00 +23°C° 0 mm 1 mps 742 mmHg 50%
    15:00 +21°C° 0 mm 0 mps 742 mmHg 49%
    16:00 +21°C° 0 mm 0 mps 742 mmHg 48%
    17:00 +20°C° 0 mm 0 mps 742 mmHg 53%
    18:00 +19°C° 0 mm 0 mps 742 mmHg 59%
    19:00 +20°C° 0 mm 1 mps 742 mmHg 65%
    20:00 +18°C° 0 mm 1 mps 743 mmHg 68%
    21:00 +16°C° 0 mm 1 mps 743 mmHg 70%
    22:00 +15°C° 0 mm 1 mps 743 mmHg 73%
    23:00 +14°C° 0 mm 1 mps 743 mmHg 77%
    Show more